Year,Month,Day,Hour,Minute,Value (Times are PST for windgust in km/hr)
2010,10,24,00,00,43.50
2010,10,24,00,01,35.40
2010,10,24,00,02,38.60
2010,10,24,00,03,40.20
2010,10,24,00,04,43.50
2010,10,24,00,05,24.20
2010,10,24,00,06,48.30
2010,10,24,00,07,37.00
2010,10,24,00,08,29.00
2010,10,24,00,09,38.60
2010,10,24,00,10,30.60
2010,10,24,00,11,30.60
2010,10,24,00,12,37.00
2010,10,24,00,13,48.30
2010,10,24,00,14,45.10
2010,10,24,00,15,64.40
2010,10,24,00,16,51.50
2010,10,24,00,17,48.30
2010,10,24,00,18,35.40
2010,10,24,00,19,54.70
2010,10,24,00,20,49.90
2010,10,24,00,21,48.30
2010,10,24,00,22,54.70
2010,10,24,00,23,38.60
2010,10,24,00,24,45.10
2010,10,24,00,25,51.50
2010,10,24,00,26,48.30
2010,10,24,00,27,40.20
2010,10,24,00,28,53.10
2010,10,24,00,29,57.90
2010,10,24,00,30,46.70
2010,10,24,00,31,48.30
2010,10,24,00,32,49.90
2010,10,24,00,33,53.10
2010,10,24,00,34,45.10
2010,10,24,00,35,46.70
2010,10,24,00,36,53.10
2010,10,24,00,37,45.10
2010,10,24,00,38,45.10
2010,10,24,00,39,53.10
2010,10,24,00,40,38.60
2010,10,24,00,41,51.50
2010,10,24,00,42,46.70
2010,10,24,00,43,29.00
2010,10,24,00,44,45.10
2010,10,24,00,45,45.10
2010,10,24,00,46,43.50
2010,10,24,00,47,48.30
2010,10,24,00,48,53.10
2010,10,24,00,49,56.30
2010,10,24,00,50,43.50
2010,10,24,00,51,43.50
2010,10,24,00,52,46.70
2010,10,24,00,53,46.70
2010,10,24,00,54,32.20
2010,10,24,00,55,35.40
2010,10,24,00,56,35.40
2010,10,24,00,57,40.20
2010,10,24,00,58,48.30
2010,10,24,00,59,35.40
2010,10,24,01,00,41.80
2010,10,24,01,01,33.80
2010,10,24,01,02,41.80
2010,10,24,01,03,45.10
2010,10,24,01,04,38.60
2010,10,24,01,05,45.10
2010,10,24,01,06,40.20
2010,10,24,01,07,59.50
2010,10,24,01,08,40.20
2010,10,24,01,09,51.50
2010,10,24,01,10,37.00
2010,10,24,01,11,48.30
2010,10,24,01,12,57.90
2010,10,24,01,13,43.50
2010,10,24,01,14,33.80
2010,10,24,01,15,46.70
2010,10,24,01,16,56.30
2010,10,24,01,17,46.70
2010,10,24,01,18,41.80
2010,10,24,01,19,32.20
2010,10,24,01,20,33.80
2010,10,24,01,21,51.50
2010,10,24,01,22,38.60
2010,10,24,01,23,49.90
2010,10,24,01,24,40.20
2010,10,24,01,25,45.10
2010,10,24,01,26,53.10
2010,10,24,01,27,82.10
2010,10,24,01,28,67.60
2010,10,24,01,29,30.60
2010,10,24,01,30,32.20
2010,10,24,01,31,49.90
2010,10,24,01,32,46.70
2010,10,24,01,33,41.80
2010,10,24,01,34,30.60
2010,10,24,01,35,35.40
2010,10,24,01,36,32.20
2010,10,24,01,37,33.80
2010,10,24,01,38,43.50
2010,10,24,01,39,35.40
2010,10,24,01,40,46.70
2010,10,24,01,41,41.80
2010,10,24,01,42,35.40
2010,10,24,01,43,40.20
2010,10,24,01,44,41.80
2010,10,24,01,45,45.10
2010,10,24,01,46,35.40
2010,10,24,01,47,43.50
2010,10,24,01,48,40.20
2010,10,24,01,49,33.80
2010,10,24,01,50,41.80
2010,10,24,01,51,38.60
2010,10,24,01,52,48.30
2010,10,24,01,53,40.20
2010,10,24,01,54,41.80
2010,10,24,01,55,57.90
2010,10,24,01,56,45.10
2010,10,24,01,57,53.10
2010,10,24,01,58,51.50
2010,10,24,01,59,59.50
2010,10,24,02,00,56.30
2010,10,24,02,01,35.40
2010,10,24,02,02,43.50
2010,10,24,02,03,49.90
2010,10,24,02,04,40.20
2010,10,24,02,05,54.70
2010,10,24,02,06,48.30
2010,10,24,02,07,49.90
2010,10,24,02,08,56.30
2010,10,24,02,09,49.90
2010,10,24,02,10,40.20
2010,10,24,02,11,56.30
2010,10,24,02,12,49.90
2010,10,24,02,13,67.60
2010,10,24,02,14,57.90
2010,10,24,02,15,45.10
2010,10,24,02,16,45.10
2010,10,24,02,17,46.70
2010,10,24,02,18,59.50
2010,10,24,02,19,45.10
2010,10,24,02,20,49.90
2010,10,24,02,21,49.90
2010,10,24,02,22,51.50
2010,10,24,02,23,43.50
2010,10,24,02,24,40.20
2010,10,24,02,25,41.80
2010,10,24,02,26,49.90
2010,10,24,02,27,51.50
2010,10,24,02,28,46.70
2010,10,24,02,29,38.60
2010,10,24,02,30,41.80
2010,10,24,02,31,32.20
2010,10,24,02,32,46.70
2010,10,24,02,33,33.80
2010,10,24,02,34,24.20
2010,10,24,02,35,40.20
2010,10,24,02,36,40.20
2010,10,24,02,37,35.40
2010,10,24,02,38,40.20
2010,10,24,02,39,22.50
2010,10,24,02,40,32.20
2010,10,24,02,41,33.80
2010,10,24,02,42,27.40
2010,10,24,02,43,29.00
2010,10,24,02,44,43.50
2010,10,24,02,45,37.00
2010,10,24,02,46,33.80
2010,10,24,02,47,33.80
2010,10,24,02,48,30.60
2010,10,24,02,49,38.60
2010,10,24,02,50,43.50
2010,10,24,02,51,43.50
2010,10,24,02,52,37.00
2010,10,24,02,53,27.40
2010,10,24,02,54,35.40
2010,10,24,02,55,32.20
2010,10,24,02,56,29.00
2010,10,24,02,57,35.40
2010,10,24,02,58,38.60
2010,10,24,02,59,32.20
2010,10,24,03,00,37.00
2010,10,24,03,01,38.60
2010,10,24,03,02,24.20
2010,10,24,03,03,46.70
2010,10,24,03,04,33.80
2010,10,24,03,05,33.80
2010,10,24,03,06,25.70
2010,10,24,03,07,25.70
2010,10,24,03,08,25.70
2010,10,24,03,09,29.00
2010,10,24,03,10,25.70
2010,10,24,03,11,27.40
2010,10,24,03,12,19.30
2010,10,24,03,13,19.30
2010,10,24,03,14,24.20
2010,10,24,03,15,22.50
2010,10,24,03,16,11.30
2010,10,24,03,17,19.30
2010,10,24,03,18,25.70
2010,10,24,03,19,25.70
2010,10,24,03,20,14.50
2010,10,24,03,21,32.20
2010,10,24,03,22,25.70
2010,10,24,03,23,29.00
2010,10,24,03,24,16.10
2010,10,24,03,25,27.40
2010,10,24,03,26,33.80
2010,10,24,03,27,30.60
2010,10,24,03,28,32.20
2010,10,24,03,29,27.40
2010,10,24,03,30,32.20
2010,10,24,03,31,22.50
2010,10,24,03,32,25.70
2010,10,24,03,33,48.30
2010,10,24,03,34,37.00
2010,10,24,03,35,24.20
2010,10,24,03,36,17.70
2010,10,24,03,37,20.90
2010,10,24,03,38,22.50
2010,10,24,03,39,25.70
2010,10,24,03,40,30.60
2010,10,24,03,41,41.80
2010,10,24,03,42,38.60
2010,10,24,03,43,43.50
2010,10,24,03,44,48.30
2010,10,24,03,45,32.20
2010,10,24,03,46,17.70
2010,10,24,03,47,17.70
2010,10,24,03,48,19.30
2010,10,24,03,49,20.90
2010,10,24,03,50,27.40
2010,10,24,03,51,17.70
2010,10,24,03,52,17.70
2010,10,24,03,53,30.60
2010,10,24,03,54,27.40
2010,10,24,03,55,20.90
2010,10,24,03,56,22.50
2010,10,24,03,57,27.40
2010,10,24,03,58,29.00
2010,10,24,03,59,25.70
2010,10,24,04,00,16.10
2010,10,24,04,01,27.40
2010,10,24,04,02,19.30
2010,10,24,04,03,11.30
2010,10,24,04,04,20.90
2010,10,24,04,05,17.70
2010,10,24,04,06,19.30
2010,10,24,04,07,16.10
2010,10,24,04,08,16.10
2010,10,24,04,09,11.30
2010,10,24,04,10,27.40
2010,10,24,04,11,25.70
2010,10,24,04,12,25.70
2010,10,24,04,13,25.70
2010,10,24,04,14,20.90
2010,10,24,04,15,29.00
2010,10,24,04,16,29.00
2010,10,24,04,17,30.60
2010,10,24,04,18,35.40
2010,10,24,04,19,29.00
2010,10,24,04,20,25.70
2010,10,24,04,21,27.40
2010,10,24,04,22,22.50
2010,10,24,04,23,24.20
2010,10,24,04,24,29.00
2010,10,24,04,25,30.60
2010,10,24,04,26,33.80
2010,10,24,04,27,29.00
2010,10,24,04,28,37.00
2010,10,24,04,29,27.40
2010,10,24,04,30,22.50
2010,10,24,04,31,30.60
2010,10,24,04,32,19.30
2010,10,24,04,33,25.70
2010,10,24,04,34,22.50
2010,10,24,04,35,25.70
2010,10,24,04,36,24.20
2010,10,24,04,37,14.50
2010,10,24,04,38,32.20
2010,10,24,04,39,22.50
2010,10,24,04,40,20.90
2010,10,24,04,41,22.50
2010,10,24,04,42,20.90
2010,10,24,04,43,22.50
2010,10,24,04,44,25.70
2010,10,24,04,45,27.40
2010,10,24,04,46,32.20
2010,10,24,04,47,16.10
2010,10,24,04,48,16.10
2010,10,24,04,49,17.70
2010,10,24,04,50,24.20
2010,10,24,04,51,17.70
2010,10,24,04,52,19.30
2010,10,24,04,53,25.70
2010,10,24,04,54,30.60
2010,10,24,04,55,24.20
2010,10,24,04,56,37.00
2010,10,24,04,57,40.20
2010,10,24,04,58,32.20
2010,10,24,04,59,27.40
2010,10,24,05,00,33.80
2010,10,24,05,01,22.50
2010,10,24,05,02,24.20
2010,10,24,05,03,19.30
2010,10,24,05,04,12.90
2010,10,24,05,05,19.30
2010,10,24,05,06,24.20
2010,10,24,05,07,20.90
2010,10,24,05,08,17.70
2010,10,24,05,09,12.90
2010,10,24,05,10,9.60
2010,10,24,05,11,8.10
2010,10,24,05,12,9.60
2010,10,24,05,13,11.30
2010,10,24,05,14,11.30
2010,10,24,05,15,3.20
2010,10,24,05,16,4.80
2010,10,24,05,17,8.10
2010,10,24,05,18,8.10
2010,10,24,05,19,4.80
2010,10,24,05,20,8.10
2010,10,24,05,21,9.60
2010,10,24,05,22,4.80
2010,10,24,05,23,6.40
2010,10,24,05,24,4.80
2010,10,24,05,25,3.20
2010,10,24,05,26,9.60
2010,10,24,05,27,8.10
2010,10,24,05,28,4.80
2010,10,24,05,29,8.10
2010,10,24,05,30,3.20
2010,10,24,05,31,1.60
2010,10,24,05,32,6.40
2010,10,24,05,34,3.20
2010,10,24,05,35,4.80
2010,10,24,05,36,1.60
2010,10,24,05,37,1.60
2010,10,24,05,38,4.80
2010,10,24,05,39,4.80
2010,10,24,05,40,4.80
2010,10,24,05,41,3.20
2010,10,24,05,42,1.60
2010,10,24,05,43,1.60
2010,10,24,05,44,1.60
2010,10,24,05,45,1.60
2010,10,24,05,46,3.20
2010,10,24,05,58,3.20
2010,10,24,05,59,3.20
2010,10,24,06,00,1.60
2010,10,24,06,01,1.60
2010,10,24,06,02,3.20
2010,10,24,06,03,3.20
2010,10,24,06,04,3.20
2010,10,24,06,05,3.20
2010,10,24,06,06,1.60
2010,10,24,06,07,3.20
2010,10,24,06,08,3.20
2010,10,24,06,09,1.60
2010,10,24,06,11,3.20
2010,10,24,06,12,4.80
2010,10,24,06,13,4.80
2010,10,24,06,14,6.40
2010,10,24,06,15,4.80
2010,10,24,06,16,4.80
2010,10,24,06,17,3.20
2010,10,24,06,18,3.20
2010,10,24,06,19,3.20
2010,10,24,06,22,1.60
2010,10,24,06,23,1.60
2010,10,24,06,24,1.60
2010,10,24,06,27,1.60
2010,10,24,06,28,3.20
2010,10,24,06,29,3.20
2010,10,24,06,30,3.20
2010,10,24,06,31,4.80
2010,10,24,06,32,4.80
2010,10,24,06,33,4.80
2010,10,24,06,34,4.80
2010,10,24,06,35,6.40
2010,10,24,06,36,6.40
2010,10,24,06,37,9.60
2010,10,24,06,38,11.30
2010,10,24,06,39,16.10
2010,10,24,06,40,11.30
2010,10,24,06,41,4.80
2010,10,24,06,42,8.10
2010,10,24,06,43,4.80
2010,10,24,06,44,8.10
2010,10,24,06,45,8.10
2010,10,24,06,46,11.30
2010,10,24,06,47,14.50
2010,10,24,06,48,9.60
2010,10,24,06,49,9.60
2010,10,24,06,50,9.60
2010,10,24,06,51,6.40
2010,10,24,06,52,4.80
2010,10,24,06,53,8.10
2010,10,24,06,54,9.60
2010,10,24,06,55,6.40
2010,10,24,06,56,4.80
2010,10,24,06,57,4.80
2010,10,24,06,58,3.20
2010,10,24,06,59,4.80
2010,10,24,07,00,3.20
2010,10,24,07,01,1.60
2010,10,24,07,02,6.40
2010,10,24,07,03,6.40
2010,10,24,07,06,3.20
2010,10,24,07,07,8.10
2010,10,24,07,08,6.40
2010,10,24,07,09,6.40
2010,10,24,07,11,3.20
2010,10,24,07,12,6.40
2010,10,24,07,13,6.40
2010,10,24,07,14,1.60
2010,10,24,07,15,3.20
2010,10,24,07,16,4.80
2010,10,24,07,17,1.60
2010,10,24,07,18,1.60
2010,10,24,07,19,3.20
2010,10,24,07,20,1.60
2010,10,24,07,21,6.40
2010,10,24,07,22,6.40
2010,10,24,07,23,6.40
2010,10,24,07,24,6.40
2010,10,24,07,25,6.40
2010,10,24,07,26,3.20
2010,10,24,07,27,1.60
2010,10,24,07,28,3.20
2010,10,24,07,31,3.20
2010,10,24,07,32,3.20
2010,10,24,07,33,3.20
2010,10,24,07,34,3.20
2010,10,24,07,35,4.80
2010,10,24,07,36,1.60
2010,10,24,07,37,4.80
2010,10,24,07,38,4.80
2010,10,24,07,39,4.80
2010,10,24,07,40,3.20
2010,10,24,07,41,3.20
2010,10,24,07,42,8.10
2010,10,24,07,43,6.40
2010,10,24,07,44,3.20
2010,10,24,07,46,1.60
2010,10,24,07,47,1.60
2010,10,24,07,48,3.20
2010,10,24,07,49,1.60
2010,10,24,07,51,1.60
2010,10,24,07,52,3.20
2010,10,24,07,53,1.60
2010,10,24,07,57,3.20
2010,10,24,07,58,3.20
2010,10,24,07,59,3.20
2010,10,24,08,02,3.20
2010,10,24,08,03,4.80
2010,10,24,08,04,3.20
2010,10,24,08,05,3.20
2010,10,24,08,06,3.20
2010,10,24,08,07,4.80
2010,10,24,08,08,3.20
2010,10,24,08,09,3.20
2010,10,24,08,10,1.60
2010,10,24,08,14,1.60
2010,10,24,08,16,1.60
2010,10,24,08,17,3.20
2010,10,24,08,18,4.80
2010,10,24,08,19,3.20
2010,10,24,08,20,3.20
2010,10,24,08,21,8.10
2010,10,24,08,22,8.10
2010,10,24,08,23,6.40
2010,10,24,08,24,6.40
2010,10,24,08,25,4.80
2010,10,24,08,26,4.80
2010,10,24,08,27,6.40
2010,10,24,08,28,4.80
2010,10,24,08,29,3.20
2010,10,24,08,30,6.40
2010,10,24,08,31,6.40
2010,10,24,08,32,8.10
2010,10,24,08,33,4.80
2010,10,24,08,34,4.80
2010,10,24,08,35,3.20
2010,10,24,08,36,1.60
2010,10,24,08,37,1.60
2010,10,24,08,40,1.60
2010,10,24,08,41,3.20
2010,10,24,08,42,1.60
2010,10,24,08,43,4.80
2010,10,24,08,44,4.80
2010,10,24,08,45,9.60
2010,10,24,08,46,8.10
2010,10,24,08,47,6.40
2010,10,24,08,48,3.20
2010,10,24,08,49,1.60
2010,10,24,09,06,1.60
2010,10,24,09,07,3.20
2010,10,24,09,08,3.20
2010,10,24,09,09,4.80
2010,10,24,09,10,4.80
2010,10,24,09,11,6.40
2010,10,24,09,12,6.40
2010,10,24,09,13,4.80
2010,10,24,09,14,4.80
2010,10,24,09,15,4.80
2010,10,24,09,16,3.20
2010,10,24,09,17,3.20
2010,10,24,09,18,3.20
2010,10,24,09,19,3.20
2010,10,24,09,20,3.20
2010,10,24,09,22,1.60
2010,10,24,09,23,3.20
2010,10,24,09,24,4.80
2010,10,24,09,25,6.40
2010,10,24,09,26,4.80
2010,10,24,09,27,3.20
2010,10,24,09,28,1.60
2010,10,24,09,29,3.20
2010,10,24,09,31,1.60
2010,10,24,09,32,1.60
2010,10,24,09,33,3.20
2010,10,24,09,34,4.80
2010,10,24,09,35,3.20
2010,10,24,09,36,3.20
2010,10,24,09,46,1.60
2010,10,24,09,47,3.20
2010,10,24,09,49,3.20
2010,10,24,09,50,1.60
2010,10,24,09,52,1.60
2010,10,24,09,53,3.20
2010,10,24,09,54,1.60
2010,10,24,09,55,1.60
2010,10,24,09,58,3.20
2010,10,24,09,59,3.20
2010,10,24,10,00,1.60
2010,10,24,10,02,1.60
2010,10,24,10,03,3.20
2010,10,24,10,04,1.60
2010,10,24,10,09,3.20
2010,10,24,10,10,4.80
2010,10,24,10,11,4.80
2010,10,24,10,12,1.60
2010,10,24,10,16,3.20
2010,10,24,10,17,4.80
2010,10,24,10,18,3.20
2010,10,24,10,19,3.20
2010,10,24,10,22,1.60
2010,10,24,10,23,3.20
2010,10,24,10,25,4.80
2010,10,24,10,26,6.40
2010,10,24,10,27,3.20
2010,10,24,10,28,4.80
2010,10,24,10,29,4.80
2010,10,24,10,30,3.20
2010,10,24,10,31,1.60
2010,10,24,10,32,4.80
2010,10,24,10,33,3.20
2010,10,24,10,34,3.20
2010,10,24,10,35,3.20
2010,10,24,10,45,1.60
2010,10,24,10,47,3.20
2010,10,24,10,48,1.60
2010,10,24,10,50,1.60
2010,10,24,10,52,3.20
2010,10,24,10,53,3.20
2010,10,24,10,54,3.20
2010,10,24,10,55,1.60
2010,10,24,10,56,3.20
2010,10,24,10,59,3.20
2010,10,24,11,00,3.20
2010,10,24,11,01,1.60
2010,10,24,11,03,1.60
2010,10,24,11,05,3.20
2010,10,24,11,06,4.80
2010,10,24,11,07,3.20
2010,10,24,11,08,4.80
2010,10,24,11,09,4.80
2010,10,24,11,10,8.10
2010,10,24,11,11,3.20
2010,10,24,11,12,3.20
2010,10,24,11,13,3.20
2010,10,24,11,14,3.20
2010,10,24,11,15,1.60
2010,10,24,11,16,3.20
2010,10,24,11,17,1.60
2010,10,24,11,18,6.40
2010,10,24,11,19,4.80
2010,10,24,11,20,3.20
2010,10,24,11,21,3.20
2010,10,24,11,22,3.20
2010,10,24,11,23,4.80
2010,10,24,11,24,6.40
2010,10,24,11,25,9.60
2010,10,24,11,26,8.10
2010,10,24,11,27,8.10
2010,10,24,11,28,6.40
2010,10,24,11,29,6.40
2010,10,24,11,30,6.40
2010,10,24,11,31,4.80
2010,10,24,11,32,4.80
2010,10,24,11,33,6.40
2010,10,24,11,34,6.40
2010,10,24,11,35,9.60
2010,10,24,11,36,9.60
2010,10,24,11,37,14.50
2010,10,24,11,38,9.60
2010,10,24,11,39,8.10
2010,10,24,11,40,4.80
2010,10,24,11,41,3.20
2010,10,24,11,42,11.30
2010,10,24,11,43,11.30
2010,10,24,11,44,8.10
2010,10,24,11,45,11.30
2010,10,24,11,46,19.30
2010,10,24,11,47,17.70
2010,10,24,11,48,11.30
2010,10,24,11,49,16.10
2010,10,24,11,50,16.10
2010,10,24,11,51,16.10
2010,10,24,11,52,14.50
2010,10,24,11,53,9.60
2010,10,24,11,54,12.90
2010,10,24,11,55,11.30
2010,10,24,11,56,11.30
2010,10,24,11,57,11.30
2010,10,24,11,58,9.60
2010,10,24,11,59,16.10
2010,10,24,12,00,14.50
2010,10,24,12,01,17.70
2010,10,24,12,02,20.90
2010,10,24,12,03,17.70
2010,10,24,12,04,20.90
2010,10,24,12,05,17.70
2010,10,24,12,06,19.30
2010,10,24,12,07,11.30
2010,10,24,12,08,9.60
2010,10,24,12,09,9.60
2010,10,24,12,10,8.10
2010,10,24,12,11,11.30
2010,10,24,12,12,9.60
2010,10,24,12,13,9.60
2010,10,24,12,14,9.60
2010,10,24,12,15,9.60
2010,10,24,12,16,6.40
2010,10,24,12,17,6.40
2010,10,24,12,18,9.60
2010,10,24,12,19,8.10
2010,10,24,12,20,9.60
2010,10,24,12,21,9.60
2010,10,24,12,22,8.10
2010,10,24,12,23,6.40
2010,10,24,12,24,9.60
2010,10,24,12,25,11.30
2010,10,24,12,26,6.40
2010,10,24,12,27,8.10
2010,10,24,12,28,11.30
2010,10,24,12,29,8.10
2010,10,24,12,30,8.10
2010,10,24,12,31,11.30
2010,10,24,12,32,11.30
2010,10,24,12,33,9.60
2010,10,24,12,34,11.30
2010,10,24,12,35,8.10
2010,10,24,12,36,6.40
2010,10,24,12,37,9.60
2010,10,24,12,38,11.30
2010,10,24,12,39,9.60
2010,10,24,12,40,16.10
2010,10,24,12,41,12.90
2010,10,24,12,42,16.10
2010,10,24,12,43,11.30
2010,10,24,12,44,12.90
2010,10,24,12,45,17.70
2010,10,24,12,46,8.10
2010,10,24,12,47,14.50
2010,10,24,12,48,6.40
2010,10,24,12,49,8.10
2010,10,24,12,50,14.50
2010,10,24,12,51,24.20
2010,10,24,12,52,20.90
2010,10,24,12,53,16.10
2010,10,24,12,54,16.10
2010,10,24,12,55,17.70
2010,10,24,12,56,17.70
2010,10,24,12,57,22.50
2010,10,24,12,58,11.30
2010,10,24,12,59,14.50
2010,10,24,13,00,20.90
2010,10,24,13,01,14.50
2010,10,24,13,02,14.50
2010,10,24,13,03,9.60
2010,10,24,13,04,20.90
2010,10,24,13,05,12.90
2010,10,24,13,06,19.30
2010,10,24,13,07,16.10
2010,10,24,13,08,11.30
2010,10,24,13,09,11.30
2010,10,24,13,10,16.10
2010,10,24,13,11,11.30
2010,10,24,13,12,8.10
2010,10,24,13,13,14.50
2010,10,24,13,14,9.60
2010,10,24,13,15,11.30
2010,10,24,13,16,14.50
2010,10,24,13,17,11.30
2010,10,24,13,18,14.50
2010,10,24,13,19,14.50
2010,10,24,13,20,16.10
2010,10,24,13,21,9.60
2010,10,24,13,22,11.30
2010,10,24,13,23,11.30
2010,10,24,13,24,9.60
2010,10,24,13,25,14.50
2010,10,24,13,26,9.60
2010,10,24,13,27,16.10
2010,10,24,13,28,16.10
2010,10,24,13,29,14.50
2010,10,24,13,30,9.60
2010,10,24,13,31,17.70
2010,10,24,13,32,11.30
2010,10,24,13,33,16.10
2010,10,24,13,34,16.10
2010,10,24,13,35,9.60
2010,10,24,13,36,8.10
2010,10,24,13,37,16.10
2010,10,24,13,38,6.40
2010,10,24,13,39,14.50
2010,10,24,13,40,8.10
2010,10,24,13,41,11.30
2010,10,24,13,42,12.90
2010,10,24,13,43,14.50
2010,10,24,13,44,11.30
2010,10,24,13,45,9.60
2010,10,24,13,46,12.90
2010,10,24,13,47,9.60
2010,10,24,13,48,11.30
2010,10,24,13,49,8.10
2010,10,24,13,50,20.90
2010,10,24,13,51,16.10
2010,10,24,13,52,16.10
2010,10,24,13,53,16.10
2010,10,24,13,54,16.10
2010,10,24,13,55,9.60
2010,10,24,13,56,19.30
2010,10,24,13,57,16.10
2010,10,24,13,58,16.10
2010,10,24,13,59,16.10
2010,10,24,14,00,9.60
2010,10,24,14,01,6.40
2010,10,24,14,02,11.30
2010,10,24,14,03,12.90
2010,10,24,14,04,11.30
2010,10,24,14,05,11.30
2010,10,24,14,06,8.10
2010,10,24,14,07,11.30
2010,10,24,14,08,9.60
2010,10,24,14,09,11.30
2010,10,24,14,10,9.60
2010,10,24,14,11,9.60
2010,10,24,14,12,6.40
2010,10,24,14,13,11.30
2010,10,24,14,14,14.50
2010,10,24,14,15,14.50
2010,10,24,14,16,14.50
2010,10,24,14,17,14.50
2010,10,24,14,18,9.60
2010,10,24,14,19,9.60
2010,10,24,14,20,9.60
2010,10,24,14,21,9.60
2010,10,24,14,22,8.10
2010,10,24,14,23,6.40
2010,10,24,14,24,4.80
2010,10,24,14,25,11.30
2010,10,24,14,26,8.10
2010,10,24,14,27,6.40
2010,10,24,14,28,9.60
2010,10,24,14,29,6.40
2010,10,24,14,30,9.60
2010,10,24,14,31,8.10
2010,10,24,14,32,8.10
2010,10,24,14,33,4.80
2010,10,24,14,34,9.60
2010,10,24,14,35,9.60
2010,10,24,14,36,14.50
2010,10,24,14,37,11.30
2010,10,24,14,38,8.10
2010,10,24,14,39,11.30
2010,10,24,14,40,11.30
2010,10,24,14,41,16.10
2010,10,24,14,42,19.30
2010,10,24,14,43,16.10
2010,10,24,14,44,11.30
2010,10,24,14,45,9.60
2010,10,24,14,46,16.10
2010,10,24,14,47,9.60
2010,10,24,14,48,9.60
2010,10,24,14,49,11.30
2010,10,24,14,50,6.40
2010,10,24,14,51,9.60
2010,10,24,14,52,9.60
2010,10,24,14,53,8.10
2010,10,24,14,54,8.10
2010,10,24,14,55,11.30
2010,10,24,14,56,17.70
2010,10,24,14,57,14.50
2010,10,24,14,58,14.50
2010,10,24,14,59,16.10
2010,10,24,15,00,17.70
2010,10,24,15,01,9.60
2010,10,24,15,02,4.80
2010,10,24,15,03,14.50
2010,10,24,15,04,11.30
2010,10,24,15,05,9.60
2010,10,24,15,06,9.60
2010,10,24,15,07,11.30
2010,10,24,15,08,8.10
2010,10,24,15,09,11.30
2010,10,24,15,10,4.80
2010,10,24,15,11,11.30
2010,10,24,15,12,6.40
2010,10,24,15,13,11.30
2010,10,24,15,14,11.30
2010,10,24,15,15,8.10
2010,10,24,15,16,8.10
2010,10,24,15,17,6.40
2010,10,24,15,18,4.80
2010,10,24,15,19,8.10
2010,10,24,15,20,4.80
2010,10,24,15,21,8.10
2010,10,24,15,22,8.10
2010,10,24,15,23,11.30
2010,10,24,15,24,8.10
2010,10,24,15,25,9.60
2010,10,24,15,26,4.80
2010,10,24,15,27,6.40
2010,10,24,15,28,6.40
2010,10,24,15,29,8.10
2010,10,24,15,30,6.40
2010,10,24,15,31,6.40
2010,10,24,15,32,4.80
2010,10,24,15,33,3.20
2010,10,24,15,34,3.20
2010,10,24,15,35,3.20
2010,10,24,15,36,6.40
2010,10,24,15,37,6.40
2010,10,24,15,38,9.60
2010,10,24,15,39,9.60
2010,10,24,15,40,11.30
2010,10,24,15,41,9.60
2010,10,24,15,42,8.10
2010,10,24,15,43,6.40
2010,10,24,15,44,3.20
2010,10,24,15,45,6.40
2010,10,24,15,46,6.40
2010,10,24,15,47,14.50
2010,10,24,15,48,4.80
2010,10,24,15,49,6.40
2010,10,24,15,50,8.10
2010,10,24,15,51,8.10
2010,10,24,15,52,9.60
2010,10,24,15,53,6.40
2010,10,24,15,54,1.60
2010,10,24,15,55,4.80
2010,10,24,15,56,3.20
2010,10,24,15,57,6.40
2010,10,24,15,58,6.40
2010,10,24,15,59,3.20
2010,10,24,16,00,6.40
2010,10,24,16,01,3.20
2010,10,24,16,03,3.20
2010,10,24,16,04,1.60
2010,10,24,16,05,4.80
2010,10,24,16,06,3.20
2010,10,24,16,07,3.20
2010,10,24,16,08,8.10
2010,10,24,16,09,8.10
2010,10,24,16,10,6.40
2010,10,24,16,11,4.80
2010,10,24,16,12,11.30
2010,10,24,16,13,8.10
2010,10,24,16,14,1.60
2010,10,24,16,15,6.40
2010,10,24,16,16,6.40
2010,10,24,16,17,6.40
2010,10,24,16,18,8.10
2010,10,24,16,19,3.20
2010,10,24,16,20,4.80
2010,10,24,16,21,4.80
2010,10,24,16,22,3.20
2010,10,24,16,23,4.80
2010,10,24,16,24,8.10
2010,10,24,16,25,3.20
2010,10,24,16,26,3.20
2010,10,24,16,27,3.20
2010,10,24,16,28,4.80
2010,10,24,16,29,4.80
2010,10,24,16,30,8.10
2010,10,24,16,31,6.40
2010,10,24,16,32,3.20
2010,10,24,16,33,3.20
2010,10,24,16,34,3.20
2010,10,24,16,35,4.80
2010,10,24,16,36,3.20
2010,10,24,16,37,1.60
2010,10,24,16,38,4.80
2010,10,24,16,39,3.20
2010,10,24,16,42,8.10
2010,10,24,16,43,9.60
2010,10,24,16,44,8.10
2010,10,24,16,45,4.80
2010,10,24,16,46,3.20
2010,10,24,16,47,9.60
2010,10,24,16,48,8.10
2010,10,24,16,49,6.40
2010,10,24,16,50,4.80
2010,10,24,16,51,4.80
2010,10,24,16,52,4.80
2010,10,24,16,53,9.60
2010,10,24,16,54,6.40
2010,10,24,16,55,8.10
2010,10,24,16,56,9.60
2010,10,24,16,57,1.60
2010,10,24,16,58,6.40
2010,10,24,16,59,4.80
2010,10,24,17,00,6.40
2010,10,24,17,01,4.80
2010,10,24,17,02,4.80
2010,10,24,17,03,6.40
2010,10,24,17,04,8.10
2010,10,24,17,05,1.60
2010,10,24,17,06,4.80
2010,10,24,17,07,4.80
2010,10,24,17,08,4.80
2010,10,24,17,09,4.80
2010,10,24,17,10,3.20
2010,10,24,17,11,3.20
2010,10,24,17,12,3.20
2010,10,24,17,13,3.20
2010,10,24,17,14,1.60
2010,10,24,17,16,1.60
2010,10,24,17,35,1.60
2010,10,24,17,40,1.60
2010,10,24,17,52,1.60
2010,10,24,17,53,1.60
2010,10,24,17,58,1.60
2010,10,24,18,06,1.60
2010,10,24,18,07,1.60
2010,10,24,18,08,1.60
2010,10,24,18,09,3.20
2010,10,24,18,10,3.20
2010,10,24,18,11,1.60
2010,10,24,18,12,3.20
2010,10,24,18,13,4.80
2010,10,24,18,14,3.20
2010,10,24,18,15,4.80
2010,10,24,18,16,6.40
2010,10,24,18,17,6.40
2010,10,24,18,18,3.20
2010,10,24,18,19,1.60
2010,10,24,18,20,8.10
2010,10,24,18,21,6.40
2010,10,24,18,22,3.20
2010,10,24,18,23,4.80
2010,10,24,18,24,3.20
2010,10,24,18,25,4.80
2010,10,24,18,26,6.40
2010,10,24,18,27,4.80
2010,10,24,18,28,6.40
2010,10,24,18,29,6.40
2010,10,24,18,30,6.40
2010,10,24,18,31,3.20
2010,10,24,18,32,1.60
2010,10,24,18,33,3.20
2010,10,24,18,34,4.80
2010,10,24,18,35,4.80
2010,10,24,18,36,4.80
2010,10,24,18,37,3.20
2010,10,24,18,38,6.40
2010,10,24,18,39,6.40
2010,10,24,18,40,6.40
2010,10,24,18,41,6.40
2010,10,24,18,42,4.80
2010,10,24,18,43,3.20
2010,10,24,18,44,3.20
2010,10,24,18,45,4.80
2010,10,24,18,46,4.80
2010,10,24,18,47,8.10
2010,10,24,18,48,6.40
2010,10,24,18,49,3.20
2010,10,24,18,50,4.80
2010,10,24,18,51,4.80
2010,10,24,18,52,4.80
2010,10,24,18,53,4.80
2010,10,24,18,54,4.80
2010,10,24,18,55,6.40
2010,10,24,18,56,6.40
2010,10,24,18,57,4.80
2010,10,24,18,58,6.40
2010,10,24,18,59,6.40
2010,10,24,19,00,4.80
2010,10,24,19,01,4.80
2010,10,24,19,02,4.80
2010,10,24,19,03,3.20
2010,10,24,19,04,3.20
2010,10,24,19,05,4.80
2010,10,24,19,06,6.40
2010,10,24,19,07,4.80
2010,10,24,19,08,6.40
2010,10,24,19,09,6.40
2010,10,24,19,10,4.80
2010,10,24,19,11,3.20
2010,10,24,19,12,3.20
2010,10,24,19,13,3.20
2010,10,24,19,14,1.60
2010,10,24,19,15,3.20
2010,10,24,19,16,4.80
2010,10,24,19,17,6.40
2010,10,24,19,18,6.40
2010,10,24,19,19,6.40
2010,10,24,19,20,3.20
2010,10,24,19,21,6.40
2010,10,24,19,22,4.80
2010,10,24,19,23,3.20
2010,10,24,19,24,4.80
2010,10,24,19,25,6.40
2010,10,24,19,26,9.60
2010,10,24,19,27,9.60
2010,10,24,19,28,9.60
2010,10,24,19,29,9.60
2010,10,24,19,30,8.10
2010,10,24,19,31,4.80
2010,10,24,19,32,4.80
2010,10,24,19,33,4.80
2010,10,24,19,34,4.80
2010,10,24,19,35,4.80
2010,10,24,19,36,6.40
2010,10,24,19,37,6.40
2010,10,24,19,38,4.80
2010,10,24,19,39,3.20
2010,10,24,19,40,4.80
2010,10,24,19,41,3.20
2010,10,24,19,42,3.20
2010,10,24,19,43,4.80
2010,10,24,19,44,3.20
2010,10,24,19,45,6.40
2010,10,24,19,46,8.10
2010,10,24,19,47,4.80
2010,10,24,19,48,4.80
2010,10,24,19,49,4.80
2010,10,24,19,50,3.20
2010,10,24,19,51,1.60
2010,10,24,19,52,3.20
2010,10,24,19,54,1.60
2010,10,24,19,55,4.80
2010,10,24,19,56,3.20
2010,10,24,19,57,3.20
2010,10,24,19,58,3.20
2010,10,24,19,59,3.20
2010,10,24,20,00,4.80
2010,10,24,20,01,4.80
2010,10,24,20,02,4.80
2010,10,24,20,03,3.20
2010,10,24,20,04,1.60
2010,10,24,20,05,4.80
2010,10,24,20,06,6.40
2010,10,24,20,07,4.80
2010,10,24,20,08,3.20